Location: Buisson
(44.2787°N, 4.9969°E)
Time: 06:05:00
(UTC+00:00)

Cosmos 2082 Rocket - Pass Details

Date: 18 April 2021
Orbit: 835 x 852 km, 71.0° (Epoch: 06 May)

Event Time Altitude Azimuth Distance (km) Brightness Sun altitude
Rises 03:26:02 0° 325° (NW) 3,394 5.3 -14.8°
Reaches altitude 10° 03:28:46 10° 314° (NW) 2,454 4.5 -14.3°
Maximum altitude 03:33:30 29° 257° (WSW) 1,498 3.0 -13.6°
Drops below altitude 10° 03:38:12 10° 199° (SSW) 2,438 4.2 -12.9°
Sets 03:40:55 0° 188° (S) 3,368 5.0 -12.5°
